HJ-2A (46478 NORAD) Tracking and Keplerian Element Data

This shows tracking and keplerian element data for the satellite.

Feedback or suggestion? Click here.




ElementValue
Catalog46478
NameHJ-2A
Epoch Orbit498
Epoch Day304.93959123
Epoch Year2020
RAAN20.0654
Inclination98.0447
Eccentricity0.0018184
Argument of Perigee256.6443
Mean Anonmoly103.2733
Mean Motion14.75721515
Decay Rate7.9E-07
L11 46478U 20067A 20304.93959123 .00000079 00000-0 19221-4 0 9999
L22 46478 98.0447 20.0654 0018184 256.6443 103.2733 14.75721515 4980

Live tracking and technical data element details for HJ-2A (NORAD 46478). HJ-2A can be tracked NOW for your location showing map with azimuth and elevation plus other details from your city location.

Track the satellite on the map from your city or location and see movement details for azimuth, elevation, latitude, longitude, range, height, and movement on the map or in text.







IsCatalogInMostPopularTable: catalog: 46478, numindb: 4
Update: records affected: 1



GetName: 46478 HJ-2A

Hit Count: updated at: Sat, 31 Oct 2020 11:40:00 GMT